Location: Seasalter
(51.3333°N, 1.0167°E)
Time: 18:37:07
(UTC+00:00)

COSMOS 2428 - Pass Details

Date: 26 September 2023
Orbit: 842 x 858 km, 70.9° (Epoch: 08 December)

Event Time Altitude Azimuth Distance (km) Brightness Sun altitude
Rises 04:18:30 0° 330° (NNW) 3,415 5.7 -14.6°
Reaches altitude 10° 04:20:58 10° 333° (NNW) 2,478 5.0 -14.2°
Maximum altitude 04:26:39 69° 57° (ENE) 907 3.1 -13.4°
Drops below altitude 10° 04:32:19 10° 141° (SE) 2,473 5.5 -12.5°
Sets 04:34:47 0° 144° (SE) 3,407 6.2 -12.1°
